Change the Weather History Date:

Sunday, September 22, 2013

  Actual Average Record
Temperature  
Mean Temperature 59 °F -  
Max Temperature 72 °F - - ()
Min Temperature 46 °F - - ()
Degree Days  
Heating Degree Days 6    
Growing Degree Days 9 (Base 50)    
Moisture  
Dew Point 37 °F    
Average Humidity 44    
Maximum Humidity 70    
Minimum Humidity 18    
Precipitation  
Precipitation 0.00 in - - ()
Sea Level Pressure  
Sea Level Pressure 29.50 in    
Wind  
Wind Speed 8 mph ()    
Max Wind Speed 17 mph    
Max Gust Speed 23 mph    
T = Trace of Precipitation, MM = Missing Value Source: Averaged Metar Reports

Daily Weather History Graph

Daily Weather History Graph

Search for Another Location

Airport or City:

Trip Planner

Search our weather history database for the weather conditions in past years. The results will help you decide how hot, cold, wet, or windy it might be!

Date:

Astronomy

Sep. 22, 2013 Rise Set
Actual Time 7:04 AM CST 7:15 PM CST
Civil Twilight 6:31 AM CST 7:48 PM CST
Nautical Twilight 5:52 AM CST 8:26 PM CST
Astronomical Twilight 5:12 AM CST 9:07 PM CST
Moon 8:40 PM CST (9/22) 10:54 AM CST (9/22)
Length of Visible Light 13h 16m
Length of Day
12h 10m
Waning Gibbous, 88% of the Moon is Illuminated
Sep 22
Waning Gibbous
Sep 26
Last Quarter
Oct 4
New
Oct 11
First Quarter
Oct 18
Full

Hourly Weather History & Observations

Time (CST) Temp. Dew Point Humidity Pressure Visibility Wind Dir Wind Speed Gust Speed Precip Events Conditions
12:00 AM 61 °F 38 °F 31% 29.51 in - SW 11.5 mph - -  
12:00 AM 61.2 °F 38.1 °F 42% 29.51 in - SW 11.5 mph - N/A   Unknown
1:00 AM 61.3 °F 36.5 °F 40% 29.45 in - West 17.3 mph 23.0 mph N/A   Unknown
2:00 AM 60.6 °F 35.8 °F 40% 29.48 in - WSW 10.4 mph - N/A   Unknown
3:00 AM 58.3 °F 36.5 °F 44% 29.47 in - WSW 6.9 mph - N/A   Unknown
4:00 AM 52.2 °F 36.3 °F 55% 29.48 in - SSW 4.6 mph - N/A   Unknown
5:00 AM 49.5 °F 37.0 °F 62% 29.51 in - South 6.9 mph - N/A   Unknown
6:00 AM 47 °F 37 °F 58% 29.54 in - SW 6.9 mph - -  
6:00 AM 47.5 °F 37.0 °F 67% 29.54 in - SW 6.9 mph - N/A   Unknown
7:00 AM 46.8 °F 37.6 °F 70% 29.56 in - WSW 6.9 mph - N/A   Unknown
8:00 AM 48.4 °F 38.5 °F 69% 29.56 in - SW 6.9 mph - N/A   Unknown
9:00 AM 52.0 °F 39.6 °F 63% 29.57 in - West 4.6 mph - N/A   Unknown
10:00 AM 55.4 °F 39.7 °F 56% 29.56 in - West 5.8 mph - N/A   Unknown
11:00 AM 59.7 °F 37.9 °F 44% 29.54 in - WNW 1.2 mph - N/A   Unknown
12:00 PM 63 °F 37 °F 27% 29.52 in - SW 3.5 mph - -  
12:00 PM 62.8 °F 37.4 °F 39% 29.52 in - SW 3.5 mph - N/A   Unknown
1:00 PM 65.5 °F 36.5 °F 34% 29.50 in - WSW 6.9 mph - N/A   Unknown
2:00 PM 69.4 °F 35.6 °F 29% 29.49 in - SW 9.2 mph - N/A   Unknown
3:00 PM 71.4 °F 31.3 °F 23% 29.47 in - SW 11.5 mph 18.4 mph N/A   Unknown
4:00 PM 69.6 °F 33.3 °F 26% 29.47 in - SW 13.8 mph - N/A   Unknown
5:00 PM 68.4 °F 35.2 °F 30% 29.47 in - SW 11.5 mph - N/A   Unknown
6:00 PM 69 °F 35 °F 18% 29.46 in - South 9.2 mph - -  
6:00 PM 69.4 °F 35.2 °F 28% 29.46 in - South 9.2 mph - N/A   Unknown
7:00 PM 64.9 °F 36.3 °F 35% 29.47 in - South 15.0 mph 21.9 mph N/A   Unknown
8:00 PM 59.0 °F 37.0 °F 44% 29.49 in - South 11.5 mph - N/A   Unknown
9:00 PM 57.4 °F 37.0 °F 47% 29.49 in - South 13.8 mph - N/A   Unknown
10:00 PM 54.5 °F 37.2 °F 52% 29.49 in - South 11.5 mph - N/A   Unknown
11:00 PM 51.8 °F 37.6 °F 58% 29.49 in - SSW 11.5 mph - N/A   Unknown